Henderson, West Virginia
Current Conditions -  °F | °C
As of 6:55 AM on Thursday 23 Oct 2014 (Local Time) from K3I2 Reporting Station
Overcast Overcast  
Wind Chill: 48°   Ceiling: 4100
Heat Index: 48°   Visibility: 10mi
Dew Point: 43°   Wind: 3mph
Humidity: 82%   Direction: 320°NW
Pressure: 30.23"   Gusts: NA
Location:  38.83°N, 82.14°W
Report Text: K3I2 231055Z AUTO 32003KT 10SM OVC041 09/06 A3023 RMK AO2
Loading
Personal Weather Stations






























Interactive Weather Map
Tropical Storm Tracking
New forecast layout! Learn more

10-Day Weather Forecast

Advertisements
Track Severe Weather on mobile